Weather History for Grand Marais Airport, MN

Change the Weather History Date:

Saturday, May 4, 2013

  Actual Average Record
Temperature  
Mean Temperature 30 °F -  
Max Temperature 35 °F 52 °F 71 °F (1999)
Min Temperature 26 °F 32 °F 24 °F (2008)
Degree Days  
Heating Degree Days 34    
Moisture  
Dew Point 28 °F    
Average Humidity 86    
Maximum Humidity 93    
Minimum Humidity 81    
Precipitation  
Precipitation 0.12 in - - ()
Sea Level Pressure  
Sea Level Pressure 30.21 in    
Wind  
Wind Speed 7 mph (North)    
Max Wind Speed 13 mph    
Max Gust Speed 16 mph    
Visibility 8 miles    
Events Rain    
Averages and records for this station are not official NWS values.
T = Trace of Precipitation, MM = Missing Value Source: NWS Daily Summary

Daily Weather History Graph

Daily Weather History Graph

Search for Another Location

Airport:

Trip Planner

Search our weather history database for the weather conditions in past years. The results will help you decide how hot, cold, wet, or windy it might be!

Date:

Astronomy

May. 04, 2013 Rise Set
Actual Time 5:38 AM CDT 8:18 PM CDT
Civil Twilight 5:03 AM CDT 8:54 PM CDT
Nautical Twilight 4:19 AM CDT 9:38 PM CDT
Astronomical Twilight 3:27 AM CDT 10:31 PM CDT
Moon 3:00 AM CDT (5/4) 2:55 PM CDT (5/4)
Length of Visible Light 15h 50m
Length of Day
14h 40m
Waning Crescent, 27% of the Moon is Illuminated
May 4
Waning Crescent
May 9
New
May 17
First Quarter
May 24
Full
May 31
Last Quarter

Hourly Weather History & Observations

Time (CDT) Temp. Windchill Dew Point Humidity Pressure Visibility Wind Dir Wind Speed Gust Speed Precip Events Conditions
12:13 AM 26.6 °F 19.1 °F 23.0 °F 86% 30.22 in 7.0 mi North 6.9 mph - 0.01 in   Overcast
12:33 AM 26.6 °F 20.0 °F 24.8 °F 93% 30.21 in 10.0 mi North 5.8 mph - 0.01 in   Overcast
12:54 AM 26.6 °F 20.0 °F 23.0 °F 86% 30.21 in 10.0 mi North 5.8 mph - 0.01 in   Overcast
1:14 AM 26.6 °F 20.0 °F 23.0 °F 86% 30.21 in 10.0 mi North 5.8 mph - N/A   Overcast
1:33 AM 26.6 °F 20.0 °F 23.0 °F 86% 30.20 in 10.0 mi North 5.8 mph - N/A   Overcast
1:54 AM 26.6 °F 19.1 °F 24.8 °F 93% 30.20 in 10.0 mi North 6.9 mph - N/A   Overcast
2:13 AM 26.6 °F 19.1 °F 24.8 °F 93% 30.20 in 4.0 mi NNW 6.9 mph - N/A   Overcast
2:33 AM 28.4 °F 21.2 °F 24.8 °F 86% 30.19 in 3.0 mi North 6.9 mph - 0.01 in   Overcast
2:54 AM 28.4 °F 21.2 °F 24.8 °F 86% 30.18 in 4.0 mi North 6.9 mph - 0.02 in   Overcast
3:13 AM 28.4 °F 20.4 °F 24.8 °F 86% 30.18 in 3.0 mi North 8.1 mph - 0.02 in   Overcast
3:34 AM 28.4 °F 22.2 °F 24.8 °F 86% 30.18 in 3.0 mi North 5.8 mph - 0.03 in   Overcast
3:54 AM 28.4 °F 20.4 °F 24.8 °F 86% 30.18 in 3.0 mi North 8.1 mph - 0.04 in   Overcast
4:13 AM 28.4 °F 21.2 °F 24.8 °F 86% 30.18 in 2.5 mi North 6.9 mph - 0.02 in   Overcast
4:33 AM 28.4 °F 21.2 °F 24.8 °F 86% 30.18 in 5.0 mi North 6.9 mph - 0.03 in   Overcast
4:54 AM 28.4 °F 23.3 °F 24.8 °F 86% 30.18 in 7.0 mi North 4.6 mph - 0.04 in   Overcast
5:13 AM 28.4 °F 23.3 °F 24.8 °F 86% 30.19 in 10.0 mi North 4.6 mph - N/A   Overcast
5:33 AM 28.4 °F 22.2 °F 24.8 °F 86% 30.19 in 10.0 mi North 5.8 mph - N/A   Overcast
5:54 AM 28.4 °F 22.2 °F 24.8 °F 86% 30.19 in 7.0 mi North 5.8 mph - N/A   Overcast
6:13 AM 28.4 °F 22.2 °F 24.8 °F 86% 30.19 in 10.0 mi North 5.8 mph - N/A   Overcast
6:33 AM 28.4 °F 21.2 °F 24.8 °F 86% 30.19 in 10.0 mi North 6.9 mph - N/A   Overcast
6:54 AM 28.4 °F 22.2 °F 24.8 °F 86% 30.20 in 10.0 mi North 5.8 mph - N/A   Overcast
7:13 AM 28.4 °F 22.2 °F 26.6 °F 93% 30.20 in 10.0 mi North 5.8 mph - N/A   Overcast
7:34 AM 28.4 °F 22.2 °F 26.6 °F 93% 30.20 in 10.0 mi NNW 5.8 mph - N/A   Overcast
7:54 AM 28.4 °F 23.3 °F 26.6 °F 93% 30.20 in 10.0 mi North 4.6 mph - N/A   Overcast
8:13 AM 30.2 °F 22.6 °F 26.6 °F 86% 30.20 in 10.0 mi North 8.1 mph - N/A   Overcast
8:33 AM 30.2 °F 24.3 °F 26.6 °F 86% 30.20 in 10.0 mi North 5.8 mph - N/A   Overcast
8:54 AM 30.2 °F 23.4 °F 26.6 °F 86% 30.20 in 10.0 mi North 6.9 mph - N/A   Overcast
9:13 AM 30.2 °F 24.3 °F 26.6 °F 86% 30.21 in 4.0 mi North 5.8 mph - N/A   Overcast
9:33 AM 30.2 °F 24.3 °F 26.6 °F 86% 30.21 in 3.0 mi North 5.8 mph - N/A   Overcast
9:54 AM 30.2 °F 26.7 °F 26.6 °F 86% 30.21 in 4.0 mi North 3.5 mph - N/A   Overcast
10:14 AM 30.2 °F - 28.4 °F 93% 30.22 in 5.0 mi Calm Calm - N/A   Overcast
10:33 AM 30.2 °F 26.7 °F 28.4 °F 93% 30.22 in 5.0 mi North 3.5 mph - N/A Rain Light Freezing Rain
10:54 AM 30.2 °F 25.4 °F 28.4 °F 93% 30.22 in 10.0 mi North 4.6 mph - N/A   Light Freezing Rain
11:13 AM 32.0 °F 27.5 °F 28.4 °F 87% 30.23 in 10.0 mi North 4.6 mph - N/A   Overcast
11:34 AM 32.0 °F 26.4 °F 28.4 °F 87% 30.23 in 10.0 mi North 5.8 mph - N/A   Overcast
11:54 AM 32.0 °F 27.5 °F 28.4 °F 87% 30.23 in 10.0 mi North 4.6 mph - N/A   Overcast
12:13 PM 33.8 °F 30.8 °F 28.4 °F 81% 30.23 in 10.0 mi North 3.5 mph - N/A   Overcast
12:38 PM 33.8 °F 28.6 °F 28.4 °F 81% 30.23 in 10.0 mi NNW 5.8 mph - N/A   Overcast
12:53 PM 33.8 °F 27.0 °F 28.4 °F 81% 30.22 in 7.0 mi North 8.1 mph - N/A   Drizzle
1:13 PM 33.8 °F 25.8 °F 30.2 °F 87% 30.22 in 7.0 mi North 10.4 mph - 0.01 in Rain Light Rain
1:33 PM 33.8 °F 24.8 °F 30.2 °F 87% 30.21 in 10.0 mi North 12.7 mph 16.1 mph 0.01 in   Mostly Cloudy
1:53 PM 35.6 °F 27.1 °F 30.2 °F 81% 30.21 in 10.0 mi North 12.7 mph - 0.01 in   Mostly Cloudy
2:14 PM 35.6 °F 29.2 °F 30.2 °F 81% 30.21 in 10.0 mi North 8.1 mph - N/A   Overcast
2:33 PM 35.6 °F 28.6 °F 30.2 °F 81% 30.21 in 10.0 mi NNW 9.2 mph - N/A   Overcast
2:54 PM 35.6 °F 29.9 °F 30.2 °F 81% 30.21 in 10.0 mi NNW 6.9 mph - N/A   Overcast
3:13 PM 35.6 °F 30.7 °F 30.2 °F 81% 30.21 in 10.0 mi NNW 5.8 mph - N/A   Overcast
3:34 PM 35.6 °F 28.6 °F 32.0 °F 87% 30.21 in 10.0 mi North 9.2 mph - N/A   Overcast
3:53 PM 35.6 °F 28.6 °F 32.0 °F 87% 30.21 in 10.0 mi North 9.2 mph - N/A   Overcast
4:14 PM 35.6 °F 31.7 °F 32.0 °F 87% 30.21 in 10.0 mi North 4.6 mph - N/A   Overcast
4:34 PM 35.6 °F 29.9 °F 30.2 °F 81% 30.21 in 10.0 mi North 6.9 mph - N/A   Overcast
4:53 PM 35.6 °F 28.6 °F 30.2 °F 81% 30.21 in 10.0 mi North 9.2 mph - N/A   Overcast
5:13 PM 35.6 °F 27.5 °F 30.2 °F 81% 30.21 in 10.0 mi NNW 11.5 mph - N/A   Overcast
5:33 PM 35.6 °F 29.2 °F 30.2 °F 81% 30.21 in 10.0 mi NNW 8.1 mph - N/A   Overcast
5:53 PM 35.6 °F 27.5 °F 30.2 °F 81% 30.21 in 10.0 mi North 11.5 mph - N/A   Overcast
6:13 PM 35.6 °F 27.5 °F 30.2 °F 81% 30.21 in 10.0 mi North 11.5 mph - N/A   Overcast
6:33 PM 35.6 °F 28.6 °F 30.2 °F 81% 30.21 in 10.0 mi North 9.2 mph - N/A   Overcast
6:54 PM 33.8 °F 27.7 °F 30.2 °F 87% 30.22 in 10.0 mi North 6.9 mph - N/A   Overcast
7:13 PM 33.8 °F 28.6 °F 30.2 °F 87% 30.22 in 10.0 mi North 5.8 mph - N/A   Overcast
7:34 PM 33.8 °F 29.6 °F 30.2 °F 87% 30.22 in 7.0 mi North 4.6 mph - N/A   Overcast
7:53 PM 33.8 °F 28.6 °F 30.2 °F 87% 30.22 in 7.0 mi North 5.8 mph - N/A   Overcast
8:13 PM 33.8 °F 27.0 °F 30.2 °F 87% 30.22 in 7.0 mi North 8.1 mph - N/A   Overcast
8:34 PM 33.8 °F 28.6 °F 30.2 °F 87% 30.22 in 7.0 mi North 5.8 mph - N/A   Overcast
8:53 PM 33.8 °F 26.4 °F 30.2 °F 87% 30.22 in 5.0 mi North 9.2 mph - N/A   Overcast
9:13 PM 33.8 °F 27.7 °F 30.2 °F 87% 30.23 in 5.0 mi North 6.9 mph - N/A   Overcast
9:34 PM 33.8 °F 28.6 °F 30.2 °F 87% 30.23 in 5.0 mi North 5.8 mph - N/A   Overcast
9:53 PM 33.8 °F 29.6 °F 30.2 °F 87% 30.23 in 5.0 mi North 4.6 mph - N/A   Overcast
10:13 PM 33.8 °F 29.6 °F 28.4 °F 81% 30.24 in 5.0 mi North 4.6 mph - N/A   Overcast
10:33 PM 33.8 °F 29.6 °F 28.4 °F 81% 30.23 in 5.0 mi North 4.6 mph - N/A   Overcast
10:54 PM 33.8 °F 27.7 °F 28.4 °F 81% 30.23 in 2.5 mi North 6.9 mph - N/A   Overcast
11:13 PM 32.0 °F 24.8 °F 28.4 °F 87% 30.22 in 2.0 mi North 8.1 mph - N/A   Overcast
11:33 PM 32.0 °F 25.6 °F 28.4 °F 87% 30.22 in 1.5 mi North 6.9 mph - N/A   Overcast
11:54 PM 32.0 °F 27.5 °F 28.4 °F 87% 30.22 in 1.5 mi North 4.6 mph - N/A   Overcast